User: anonymous   Login
Location: Unspecified
(0.0000°N, 0.0000°E)
Time: 12:21:24
(UTC+00:00)
Language:

SWISSCUBE - Orbit

View from above orbital plane
View from above orbital plane
View from above satellite
View from above satellite

Ground track
Ground track

The orbit data is extracted from the following two-line orbital elements,

1 35932U 09051B   17056.18771789  .00000253  00000-0  68483-4 0  9997
2 35932  98.4770 192.8059 0006893 228.7465 131.3138 14.55961186394027
Epoch (UTC): 25 February 2017 04:30:18
Eccentricity: 0.0006893
inclination: 98.4770°
perigee height: 701 km
apogee height: 711 km
right ascension of ascending node: 192.8059°
argument of perigee: 228.7465°
revolutions per day: 14.55961186
mean anomaly at epoch: 131.3138°
orbit number at epoch: 39402

The dashed part of the orbit path shows where the satellite is in the earth's shadow,  

DLR